TimeCST,TemperatureF,Dew PointF,Humidity,Sea Level PressureIn,VisibilityMPH,Wind Direction,Wind SpeedMPH,Gust SpeedMPH,PrecipitationIn,Events,Conditions,WindDirDegrees,DateUTC
12:15 AM,30.2,26.6,86,29.98,10.0,Calm,Calm,-,N/A,,Overcast,0,2013-12-02 06:15:00
12:35 AM,30.2,26.6,86,29.98,10.0,Calm,Calm,-,N/A,,Overcast,0,2013-12-02 06:35:00
12:55 AM,28.4,26.6,93,29.98,10.0,Calm,Calm,-,N/A,,Overcast,0,2013-12-02 06:55:00
1:15 AM,28.4,26.6,93,29.98,10.0,Calm,Calm,-,N/A,,Overcast,0,2013-12-02 07:15:00
1:35 AM,28.4,24.8,86,29.98,10.0,Calm,Calm,-,N/A,,Overcast,0,2013-12-02 07:35:00
1:55 AM,28.4,24.8,86,29.98,10.0,Calm,Calm,-,N/A,,Overcast,0,2013-12-02 07:55:00
2:15 AM,28.4,24.8,86,29.98,10.0,Calm,Calm,-,N/A,,Overcast,0,2013-12-02 08:15:00
2:35 AM,28.4,24.8,86,29.97,10.0,Calm,Calm,-,N/A,,Overcast,0,2013-12-02 08:35:00
2:55 AM,28.4,24.8,86,29.96,10.0,Calm,Calm,-,N/A,,Overcast,0,2013-12-02 08:55:00
3:15 AM,30.2,24.8,80,29.95,10.0,Calm,Calm,-,N/A,,Overcast,0,2013-12-02 09:15:00
3:35 AM,28.4,24.8,86,29.95,10.0,Calm,Calm,-,N/A,,Overcast,0,2013-12-02 09:35:00
3:55 AM,28.4,24.8,86,29.95,10.0,Calm,Calm,-,N/A,,Overcast,0,2013-12-02 09:55:00
4:15 AM,28.4,24.8,86,29.95,10.0,Calm,Calm,-,N/A,,Overcast,0,2013-12-02 10:15:00
4:35 AM,30.2,24.8,80,29.95,10.0,Calm,Calm,-,N/A,,Overcast,0,2013-12-02 10:35:00
4:55 AM,28.4,24.8,86,29.95,10.0,Calm,Calm,-,N/A,,Overcast,0,2013-12-02 10:55:00
5:15 AM,28.4,24.8,86,29.94,10.0,Calm,Calm,-,N/A,,Overcast,0,2013-12-02 11:15:00
5:35 AM,30.2,24.8,80,29.95,10.0,Calm,Calm,-,N/A,,Overcast,0,2013-12-02 11:35:00
5:55 AM,30.2,24.8,80,29.94,10.0,Calm,Calm,-,N/A,,Overcast,0,2013-12-02 11:55:00
6:15 AM,30.2,23.0,75,29.94,10.0,Calm,Calm,-,N/A,,Overcast,0,2013-12-02 12:15:00
6:35 AM,30.2,23.0,75,29.94,10.0,Calm,Calm,-,N/A,,Overcast,0,2013-12-02 12:35:00
6:55 AM,30.2,24.8,80,29.93,10.0,Calm,Calm,-,N/A,,Overcast,0,2013-12-02 12:55:00
7:15 AM,30.2,23.0,75,29.93,10.0,Calm,Calm,-,N/A,,Overcast,0,2013-12-02 13:15:00
7:35 AM,30.2,23.0,75,29.94,10.0,Calm,Calm,-,N/A,,Overcast,0,2013-12-02 13:35:00
7:55 AM,30.2,23.0,75,29.93,10.0,Calm,Calm,-,N/A,,Scattered Clouds,0,2013-12-02 13:55:00
8:15 AM,30.2,24.8,80,29.93,10.0,Calm,Calm,-,N/A,,Clear,0,2013-12-02 14:15:00
8:35 AM,33.8,26.6,75,29.93,10.0,Calm,Calm,-,N/A,,Clear,0,2013-12-02 14:35:00
8:55 AM,33.8,21.2,60,29.93,10.0,Calm,Calm,-,N/A,,Clear,0,2013-12-02 14:55:00
9:15 AM,35.6,19.4,52,29.93,10.0,Calm,Calm,-,N/A,,Mostly Cloudy,0,2013-12-02 15:15:00
9:35 AM,35.6,19.4,52,29.93,10.0,Calm,Calm,-,N/A,,Overcast,0,2013-12-02 15:35:00
9:55 AM,35.6,19.4,52,29.94,10.0,Calm,Calm,-,N/A,,Overcast,0,2013-12-02 15:55:00
10:15 AM,35.6,19.4,52,29.93,10.0,Calm,Calm,-,N/A,,Overcast,0,2013-12-02 16:15:00
10:35 AM,35.6,19.4,52,29.93,10.0,Calm,Calm,-,N/A,,Overcast,0,2013-12-02 16:35:00
10:55 AM,35.6,19.4,52,29.92,10.0,Calm,Calm,-,N/A,,Overcast,0,2013-12-02 16:55:00
11:15 AM,35.6,19.4,52,29.91,10.0,Calm,Calm,-,N/A,,Overcast,0,2013-12-02 17:15:00
11:35 AM,35.6,19.4,52,29.91,10.0,Calm,Calm,-,N/A,,Overcast,0,2013-12-02 17:35:00
11:55 AM,37.4,19.4,48,29.90,10.0,ENE,4.6,-,N/A,,Overcast,70,2013-12-02 17:55:00
12:15 PM,35.6,19.4,52,29.89,10.0,SE,3.5,-,N/A,,Overcast,140,2013-12-02 18:15:00
12:35 PM,37.4,21.2,52,29.88,10.0,East,6.9,-,N/A,,Overcast,90,2013-12-02 18:35:00
12:55 PM,37.4,19.4,48,29.88,10.0,East,6.9,-,N/A,,Overcast,80,2013-12-02 18:55:00
1:15 PM,35.6,19.4,52,29.87,10.0,East,5.8,-,N/A,,Overcast,80,2013-12-02 19:15:00
1:35 PM,35.6,19.4,52,29.87,10.0,ESE,4.6,-,N/A,,Overcast,120,2013-12-02 19:35:00
1:55 PM,35.6,19.4,52,29.87,10.0,ESE,4.6,-,N/A,,Overcast,120,2013-12-02 19:55:00
2:15 PM,35.6,19.4,52,29.86,10.0,East,8.1,-,N/A,,Overcast,90,2013-12-02 20:15:00
2:35 PM,35.6,19.4,52,29.86,10.0,ESE,4.6,-,N/A,,Overcast,110,2013-12-02 20:35:00
2:55 PM,35.6,19.4,52,29.86,10.0,ESE,5.8,-,N/A,,Scattered Clouds,110,2013-12-02 20:55:00
3:15 PM,35.6,19.4,52,29.86,10.0,East,5.8,-,N/A,,Partly Cloudy,90,2013-12-02 21:15:00
3:35 PM,33.8,23.0,65,29.85,10.0,East,4.6,-,N/A,,Mostly Cloudy,80,2013-12-02 21:35:00
3:55 PM,33.8,24.8,70,29.86,10.0,East,3.5,-,N/A,,Scattered Clouds,80,2013-12-02 21:55:00
4:15 PM,33.8,23.0,65,29.85,10.0,East,3.5,-,N/A,,Clear,80,2013-12-02 22:15:00
4:35 PM,33.8,23.0,65,29.86,10.0,East,3.5,-,N/A,,Scattered Clouds,90,2013-12-02 22:35:00
4:55 PM,33.8,24.8,70,29.86,10.0,East,3.5,-,N/A,,Overcast,100,2013-12-02 22:55:00
5:15 PM,33.8,23.0,65,29.86,10.0,Calm,Calm,-,N/A,,Overcast,0,2013-12-02 23:15:00
5:35 PM,32.0,24.8,75,29.86,10.0,ESE,3.5,-,N/A,,Overcast,110,2013-12-02 23:35:00
5:55 PM,32.0,24.8,75,29.86,10.0,East,3.5,-,N/A,,Overcast,100,2013-12-02 23:55:00
6:15 PM,32.0,24.8,75,29.87,10.0,SE,3.5,-,N/A,,Overcast,130,2013-12-03 00:15:00
6:35 PM,32.0,24.8,75,29.87,10.0,ESE,3.5,-,N/A,,Overcast,120,2013-12-03 00:35:00
6:55 PM,33.8,24.8,70,29.87,10.0,East,3.5,-,N/A,,Overcast,80,2013-12-03 00:55:00
7:15 PM,33.8,24.8,70,29.87,10.0,ESE,3.5,-,N/A,,Overcast,120,2013-12-03 01:15:00
7:35 PM,33.8,24.8,70,29.87,10.0,East,3.5,-,N/A,,Overcast,100,2013-12-03 01:35:00
7:55 PM,33.8,26.6,75,29.86,10.0,East,3.5,-,N/A,,Overcast,100,2013-12-03 01:55:00
8:15 PM,33.8,26.6,75,29.86,10.0,SE,3.5,-,N/A,,Overcast,130,2013-12-03 02:15:00
8:35 PM,33.8,26.6,75,29.86,10.0,ESE,4.6,-,N/A,,Overcast,120,2013-12-03 02:35:00
8:55 PM,33.8,26.6,75,29.86,10.0,East,4.6,-,N/A,,Overcast,100,2013-12-03 02:55:00
9:15 PM,33.8,26.6,75,29.86,10.0,East,4.6,-,N/A,,Mostly Cloudy,80,2013-12-03 03:15:00
9:35 PM,33.8,26.6,75,29.85,10.0,East,4.6,-,N/A,,Overcast,80,2013-12-03 03:35:00
9:55 PM,33.8,26.6,75,29.85,10.0,East,3.5,-,N/A,,Overcast,100,2013-12-03 03:55:00
10:15 PM,33.8,26.6,75,29.85,10.0,ESE,3.5,-,N/A,,Overcast,120,2013-12-03 04:15:00
10:35 PM,35.6,28.4,75,29.85,10.0,SE,6.9,-,N/A,,Overcast,130,2013-12-03 04:35:00
10:55 PM,35.6,28.4,75,29.85,10.0,ESE,9.2,-,N/A,,Overcast,120,2013-12-03 04:55:00
11:15 PM,35.6,26.6,70,29.85,10.0,SE,8.1,-,N/A,,Mostly Cloudy,130,2013-12-03 05:15:00
11:35 PM,35.6,26.6,70,29.85,10.0,ESE,8.1,-,N/A,,Mostly Cloudy,120,2013-12-03 05:35:00
11:55 PM,35.6,26.6,70,29.85,10.0,ESE,9.2,-,N/A,,Overcast,120,2013-12-03 05:55:00